星链-6196 (STARLINK-6196 )

导读 | 星芒AI

STARLINK-6196 是 SpaceX Starlink 项目中的一颗低轨通信卫星,属于第六批发射的星链卫星群。该卫星于2022年发射,运行在约550公里高度的近地轨道,旨在为全球用户提供高速互联网服务。Starlink 卫星采用先进相控阵天线和激光通信技术,支持低延迟、高带宽的通信连接。STARLINK-6196 的部署有助于扩大 Starlink 在偏远和农村地区的网络覆盖,提升全球互联网接入的普及率和稳定性。

基本信息
目录编号:
56487
目录名称:
STARLINK-6196
国际标识:
2023-064AR
轨道中心:
EARTH
卫星名称:
星链-6196
卫星全名:
星链-6196 (STARLINK-6196 )
卫星状态:
在轨 (已飞行909 天)
发射日期:
2023-05-10 UTC
国别 :
美国 (US)
星等 :
--
轨道信息
数据来源 国际轨道数据
星历时间: 2025-11-02T19:51:53+0800
1天前
查看轨道信息
半长轴: 6950.197km
偏心率: 0.000296
轨道倾角: 70.000°
近地点辐角 271.039°
升交点赤经 65.014°
平近点角 89.043°
近地点: 570.004km
远地点: 574.12km
周期: 96.107分钟
每日圈数: 14.983288
详细信息
固有亮度:
5
最大亮度:
2.5
卫星平台:
Starlink v1.5
覆盖范围:
全球
运营商:
太空探索技术公司
运营商所在国:
美国
制造商(研发单位):
太空探索技术公司
制造商所在国:
美国
使用方式:
暂无
卫星简介
星链(Starlink)计划是由太空探索技术公司(SpaceX)提出的一个巨型低轨卫星互联网星座项目,计划在2019年至2024年间在太空搭建由约1.2万颗卫星组成的“星链”网络,其中1584颗将部署在地球上空550千米处的近地轨道,并从2020年开始工作。该卫星仍在工作。
2D轨道图
3D轨道图
轨道高度分析图
轨道倾角分析图
轨道综合分析图
查看轨道综合分析图